Location: Arcizac
(43.0933°N, 0.0112°E)
Time: 08:07:01
(UTC+00:00)

FALCON 9 DEB - Pass Details

Date: 14 December 2019
Orbit: 431 x 443 km, 53.0° (Epoch: 18 January)

Event Time Altitude Azimuth Distance (km) Brightness Sun altitude
Rises 17:11:50 0° 257° (WSW) 2,425 8.9 -8.3°
Reaches altitude 10° 17:14:05 10° 267° (W) 1,557 7.2 -8.7°
Maximum altitude 17:17:18 34° 334° (NNW) 751 4.3 -9.2°
Enters shadow 17:20:19 11° 40° (NE) 1,478 5.3 -9.8°
